GW2134 Weather Reports


time (UTC)temp
C
wind
direction
speed
KPH
gust
KPH
rain 1hr
cm
rain 24hr
cm
rain mn
cm
humidity
%
barometer
mb
20260905163055 28 5 1.6 4.8 0.00 0.00 0.00 56 1022.4
20260905161601 28 0 0.0 3.2 0.00 0.00 0.00 55 1022.3
20260905160122 29 343 1.6 9.7 0.00 0.00 0.00 54 1022.3
20260905154556 30 126 0.0 4.8 0.00 0.00 0.00 51 1022.3
20260905153101 30 66 1.6 4.8 0.00 0.00 0.00 51 1022.1
20260905151609 30 0 3.2 12.9 0.00 0.00 0.00 51 1022.1
20260905150057 31 67 4.8 12.9 0.00 0.00 0.00 49 1022.1
20260905144555 31 115 0.0 11.3 0.00 0.00 0.00 47 1022.1
20260905143100 31 110 1.6 11.3 0.00 0.00 0.00 46 1022.2
20260905141601 31 114 3.2 14.5 0.00 0.00 0.00 47 1022.2
20260905140108 31 103 4.8 11.3 0.00 0.00 0.00 47 1022.2
20260905134554 31 89 3.2 14.5 0.00 0.00 0.00 46 1022.4
20260905133102 31 0 3.2 14.5 0.00 0.00 0.00 43 1022.6
20260905131608 31 129 6.4 16.1 0.00 0.00 0.00 43 1022.6
20260905130110 31 120 4.8 14.5 0.00 0.00 0.00 45 1022.7
20260905124603 31 139 4.8 14.5 0.00 0.00 0.00 45 1022.7
20260905123102 31 131 4.8 14.5 0.00 0.00 0.00 44 1022.7
20260905121603 31 134 1.6 8.0 0.00 0.00 0.00 42 1022.7
20260905120113 30 19 6.4 16.1 0.00 0.00 0.00 41 1022.7
20260905114558 31 113 6.4 19.3 0.00 0.00 0.00 37 1022.7
20260905113056 31 111 4.8 14.5 0.00 0.00 0.00 35 1022.7
20260905111613 31 97 4.8 16.1 0.00 0.00 0.00 35 1022.7
20260905110101 31 111 4.8 12.9 0.00 0.00 0.00 34 1022.8
20260905104600 31 336 1.6 16.1 0.00 0.00 0.00 33 1022.7
20260905103056 31 90 6.4 12.9 0.00 0.00 0.00 32 1022.8
20260905101606 31 95 4.8 12.9 0.00 0.00 0.00 30 1022.7
20260905094558 30 151 3.2 12.9 0.00 0.00 0.00 30 1023.0
20260905093102 30 136 4.8 12.9 0.00 0.00 0.00 30 1023.1
20260905091606 30 5 0.0 4.8 0.00 0.00 0.00 30 1023.0
20260905090053 29 198 1.6 9.7 0.00 0.00 0.00 34 1022.8
20260905084618 28 0 1.6 6.4 0.00 0.00 0.00 34 1022.8
20260905083056 28 22 0.0 4.8 0.00 0.00 0.00 33 1022.6
20260905081559 27 0 0.0 4.8 0.00 0.00 0.00 35 1022.4
20260905074605 26 0 0.0 3.2 0.00 0.00 0.00 38 1022.3
20260905073103 26 0 0.0 6.4 0.00 0.00 0.00 39 1022.2
20260905071600 26 101 0.0 8.0 0.00 0.00 0.00 41 1022.1
20260905070105 25 0 0.0 3.2 0.00 0.00 0.00 44 1021.9
20260905064559 23 90 0.0 4.8 0.00 0.00 0.00 46 1021.7
20260905063058 23 86 0.0 3.2 0.00 0.00 0.00 45 1021.5
20260905061606 22 0 0.0 3.2 0.00 0.00 0.00 47 1021.5
20260905060100 22 0 0.0 4.8 0.00 0.00 0.00 47 1021.6
20260905054559 22 86 0.0 4.8 0.00 0.00 0.00 47 1021.5
20260905053141 22 339 3.2 6.4 0.00 0.00 0.00 46 1021.6
20260905051559 22 0 3.2 8.0 0.00 0.00 0.00 46 1021.7
20260905050056 22 355 1.6 6.4 0.00 0.00 0.00 46 1021.5
20260905044603 22 334 3.2 8.0 0.00 0.00 0.00 48 1021.6
20260905043103 22 0 0.0 4.8 0.00 0.00 0.00 48 1021.4
20260905041559 22 323 3.2 8.0 0.00 0.00 0.00 47 1021.5
20260905040053 22 0 0.0 4.8 0.00 0.00 0.00 47 1021.6
20260905034602 22 283 0.0 6.4 0.00 0.00 0.00 48 1021.4
20260905033102 22 307 0.0 6.4 0.00 0.00 0.00 46 1021.5
20260905031554 22 10 1.6 8.0 0.00 0.00 0.00 46 1021.5
20260905024623 22 360 0.0 6.4 0.00 0.00 0.00 48 1021.9
20260905023105 22 0 0.0 4.8 0.00 0.00 0.00 48 1021.7
20260905021552 22 0 0.0 3.2 0.00 0.00 0.00 49 1021.9
20260905020111 22 0 1.6 4.8 0.00 0.00 0.00 50 1022.0
20260905014615 22 318 3.2 8.0 0.00 0.00 0.00 49 1022.1
20260905013104 22 308 0.0 6.4 0.00 0.00 0.00 50 1022.0
20260905011559 22 326 3.2 8.0 0.00 0.00 0.00 49 1022.1
20260905004558 22 342 3.2 8.0 0.00 0.00 0.00 49 1022.1
20260905003056 22 329 1.6 6.4 0.00 0.00 0.00 49 1022.2
20260905001603 22 321 3.2 9.7 0.00 0.00 0.00 49 1022.2
20260905000109 22 338 3.2 6.4 0.00 0.00 0.00 48 1022.5
20260904234600 22 340 1.6 6.4 0.00 0.00 0.00 49 1022.7
20260904233103 22 360 0.0 4.8 0.00 0.00 0.00 48 1022.7
20260904231603 22 319 0.0 4.8 0.00 0.00 0.00 49 1022.9
20260904230108 23 325 3.2 6.4 0.00 0.00 0.00 48 1022.9
20260904224607 23 326 1.6 6.4 0.00 0.00 0.00 50 1023.0
20260904223057 23 0 0.0 8.0 0.00 0.00 0.00 48 1023.1
20260904221559 23 0 0.0 6.4 0.00 0.00 0.00 48 1023.1
20260904220104 23 337 3.2 8.0 0.00 0.00 0.00 45 1023.0
20260904214605 23 0 1.6 4.8 0.00 0.00 0.00 47 1023.0
20260904213056 23 326 6.4 9.7 0.00 0.00 0.00 45 1023.1
20260904211554 23 5 4.8 9.7 0.00 0.00 0.00 50 1023.2
20260904210105 23 317 6.4 9.7 0.00 0.00 0.00 45 1023.2
20260904204604 23 331 1.6 6.4 0.00 0.00 0.00 47 1023.2
20260904203104 24 340 4.8 8.0 0.00 0.00 0.00 46 1023.5
20260904201636 24 360 1.6 9.7 0.00 0.00 0.00 46 1023.5
20260904200119 24 360 8.0 12.9 0.00 0.00 0.00 44 1023.4
20260904194606 24 329 4.8 8.0 0.00 0.00 0.00 47 1023.4
20260904193110 24 324 4.8 11.3 0.00 0.00 0.00 49 1023.4
20260904191602 24 323 6.4 12.9 0.00 0.00 0.00 49 1023.3
20260904190110 25 334 6.4 8.0 0.00 0.00 0.00 49 1023.1
20260904184605 25 314 4.8 8.0 0.00 0.00 0.00 52 1023.1
20260904183102 26 325 3.2 8.0 0.00 0.00 0.00 51 1023.0
20260904181559 26 345 4.8 9.7 0.00 0.00 0.00 49 1022.8
20260904180104 27 331 4.8 8.0 0.00 0.00 0.00 43 1022.7
20260904174601 27 0 0.0 3.2 0.00 0.00 0.00 43 1022.5
20260904173126 28 0 0.0 1.6 0.00 0.00 0.00 43 1022.6
20260904171611 28 0 0.0 6.4 0.00 0.00 0.00 44 1022.6
20260904170105 28 0 0.0 6.4 0.00 0.00 0.00 45 1022.6
20260904164601 29 41 1.6 4.8 0.00 0.00 0.00 44 1022.7